Flag for Norway Weather past 2 weeks in Larvik, Norway

Now
55 °F

Heavy rain. Passing clouds.


Feels Like: 52 °F
Forecast: 54 / 60 °F
Wind: 14 mph from Northeast

Location: Torp

Current Time: Sep 2, 2015 at 1:23:40 AM

Latest Report: Sep 2, 2015 at 12:50 AM


Visibility: 3 mi

Pressure: 29.68 "Hg

Humidity: 100%

Dew point: 55 °F

Location of LarvikLocation

Historic Weather in Larvik — Graph

°F

Larvik temperature yesterday

Maximum temperature yesterday: 57 °F (at 3:50 AM)
Minimum temperature yesterday: 54 °F (at 9:50 AM)
Average temperature yesterday: 55 °F

Past Weeks' High & Low Weather Summary

 TemperatureHumidityPressure
High75 °F (Aug 23, 3:50 PM)100% (Aug 19, 5:20 AM)30.36 "Hg (Aug 19, 5:20 AM)
Low48 °F (Aug 21, 6:20 AM)38% (Aug 19, 5:50 PM)29.50 "Hg (Aug 27, 5:20 PM)
Average60 °F80%30.02 "Hg
* Reported Aug 17 11:20 PM — Sep 1 11:20 PM, Larvik, Weather by CustomWeather, © 2015

Note: Actual official high and low records may vary slightly from our data, if they occured in-between our weather recording intervals... More about our weather records

Advertising

Larvik weather history for previous 24 hours

 ConditionsComfort  
Time TempWeatherWind HumidityBarometerVisibility
11:20 PM
Tue, Sep 1
55 °FLight rain. Mostly cloudy.16 mph100%29.71 "Hg3 mi
10:50 PM55 °FRain. Partly cloudy.17 mph100%29.71 "Hg4 mi
10:20 PM55 °FRain. Partly cloudy.15 mph100%29.71 "Hg3 mi
9:50 PM55 °FRain. Passing clouds.14 mph100%29.74 "Hg3 mi
9:20 PM55 °FRain. Partly sunny.14 mph100%29.74 "Hg3 mi
8:50 PM55 °FRain. Partly sunny.14 mph100%29.74 "Hg3 mi
8:20 PM55 °FRain. Fog.15 mph100%29.77 "Hg2 mi
7:50 PM55 °FRain. Partly sunny.16 mph94%29.77 "Hg3 mi
7:20 PM55 °FLight rain. Partly sunny.14 mph94%29.77 "Hg4 mi
6:50 PM55 °FLight rain. Partly sunny.15 mph100%29.77 "Hg4 mi
6:20 PM55 °FRain. Fog.13 mph100%29.77 "Hg3 mi
5:50 PM55 °FRain. Broken clouds.15 mph100%29.77 "Hg4 mi
5:20 PM55 °FLight rain. Partly sunny.15 mph100%29.80 "Hg5 mi
4:50 PM55 °FLight rain. Broken clouds.16 mph100%29.80 "Hg6 mi
4:20 PM55 °FDrizzle. Broken clouds.15 mph100%29.80 "HgN/A
3:50 PM55 °FLight rain. Partly sunny.15 mph100%29.80 "Hg4 mi
3:20 PM55 °FLight rain. Fog.13 mph100%29.80 "Hg3 mi
2:50 PM55 °FLight rain. Partly sunny.14 mph100%29.80 "Hg4 mi
2:20 PM55 °FLight rain. Partly sunny.15 mph100%29.80 "Hg5 mi
1:50 PM55 °FLight rain. Broken clouds.15 mph100%29.83 "Hg6 mi
1:20 PM55 °FLight rain. Broken clouds.15 mph100%29.83 "Hg6 mi
12:50 PM55 °FRain. Partly sunny.14 mph94%29.83 "Hg4 mi
12:20 PM55 °FLight rain. Broken clouds.13 mph94%29.83 "HgN/A
11:50 AM55 °FLight rain. Broken clouds.14 mph94%29.83 "HgN/A
11:20 AM55 °FLight rain. Scattered clouds.13 mph94%29.83 "HgN/A
10:50 AM54 °FLight rain. Broken clouds.13 mph100%29.83 "HgN/A
10:20 AM54 °FMixture of precip. Partly sunny.14 mph100%29.83 "HgN/A
9:50 AM54 °FDrizzle. Partly sunny.13 mph100%29.86 "HgN/A
9:20 AM55 °FLight rain. Partly sunny.12 mph94%29.83 "HgN/A
8:50 AM55 °FLight rain. Partly sunny.14 mph94%29.83 "HgN/A
8:20 AM55 °FLight rain. Partly sunny.12 mph94%29.83 "HgN/A
7:50 AM55 °FDrizzle. Fog.10 mph100%29.86 "HgN/A
7:20 AM57 °FPassing clouds.9 mph94%29.86 "HgN/A
6:50 AM57 °FSprinkles. Passing clouds.8 mph94%29.86 "HgN/A
6:20 AM57 °FPassing clouds.8 mph94%29.83 "HgN/A
5:20 AM55 °FLight rain. Passing clouds.6 mph100%29.86 "HgN/A
4:50 AM55 °FCool.6 mph100%29.86 "HgN/A
4:20 AM57 °FCool.8 mph94%29.86 "HgN/A
3:50 AM57 °FCool.7 mph94%29.89 "HgN/A
3:20 AM55 °FCool.7 mph100%29.89 "HgN/A
2:50 AM55 °FCool.8 mph94%29.89 "HgN/A
2:20 AM55 °FPassing clouds.7 mph94%29.89 "HgN/A
1:50 AM55 °FPassing clouds.7 mph94%29.89 "HgN/A
1:20 AM55 °FPassing clouds.6 mph94%29.92 "HgN/A
Weather by CustomWeather, © 2015

See weather overviewHow to use our weather pages